[[{"header":{"parameterUnit":"m.s-1","parameterCategory":1,"la1":30.2991,"la2":30.254,"lo1":-89.0895,"lo2":-89.0444,"dy":0.0017,"dx":0.0017,"nx":28,"ny":28,"refTime":"2023-10-08T21:00:00:Z","depth":0,"parameterNumber":2,"parameterNumberName":"U-component_of_WINDS"},"data":[0,0,0,0,0,0,0,0,0,0,0,0,0,0,0,0,0,0,0,0,0,0,0,0,0,0,0,0,0,0,0,0,0,0,0,0,0,0,0,0,0,0,0,0,0,0,0,0,0,0,0,0,0,0,0,0,0,0,-0.2818,-0.2818,0,-0.2813,-0.2813,-0.2813,-0.2777,-0.2776,-0.2775,-0.2774,-0.277,-0.2771,-0.2771,0,0,0,0,0,0,0,0,0,0,0,0,0,-0.2797,-0.2798,-0.2818,-0.2818,-0.2818,-0.2813,-0.2813,-0.2813,-0.2777,-0.2776,-0.2775,-0.2774,-0.277,-0.2771,-0.2772,0,0,0,0,0,0,0,0,0,0,0,0,0,-0.2801,-0.2798,-0.2818,-0.2799,-0.2797,-0.2813,-0.2813,-0.2813,-0.2777,-0.2776,-0.2774,-0.2773,-0.277,-0.2771,-0.2772,-0.2805,0,0,-0.2775,-0.2775,0,0,0,0,0,0,0,0,-0.2801,-0.2802,-0.2802,-0.28,-0.2799,-0.2794,-0.2804,-0.281,-0.2777,-0.2785,-0.2774,-0.2772,-0.2779,-0.2779,-0.2781,-0.2805,-0.2805,-0.2775,-0.2776,-0.2776,-0.2777,0,0,0,0,0,0,0,-0.2801,-0.2802,-0.2816,-0.2802,-0.28,-0.2792,-0.2791,-0.2805,-0.279,-0.2784,-0.2781,-0.2781,-0.2778,-0.2781,-0.2781,-0.2805,-0.2775,-0.2776,-0.2777,-0.2777,-0.2856,-0.2857,0,0,0,0,0,0,-0.2803,-0.2802,-0.2816,-0.2816,-0.2796,-0.2793,-0.2792,-0.2797,-0.2789,-0.2787,-0.2782,-0.278,-0.2779,-0.278,-0.2781,-0.282,-0.2776,-0.2777,-0.2778,-0.2855,-0.2856,-0.2858,0,0,0,0,0,0,-0.2802,-0.2804,-0.2816,-0.2808,-0.2809,-0.2795,-0.2801,-0.2797,-0.28,-0.2788,-0.2785,-0.2788,-0.2778,-0.2779,-0.2799,-0.2819,-0.2778,-0.2779,-0.2853,-0.2855,-0.2857,-0.2897,0,0,0,0,0,0,-0.2802,-0.2804,-0.2817,-0.2809,-0.2809,-0.2835,-0.2802,-0.2798,-0.2802,-0.2798,-0.2792,-0.279,-0.2777,-0.2798,-0.28,-0.282,-0.278,-0.2851,-0.2854,-0.2856,-0.2894,-0.2901,-0.2906,0,0,0,0,0,-0.2801,-0.2828,-0.2817,-0.2819,-0.2824,-0.2836,-0.2836,-0.2821,-0.2803,-0.2816,-0.2808,-0.279,-0.2817,-0.28,-0.2803,-0.2823,-0.285,-0.2853,-0.2856,-0.2892,-0.2899,-0.2906,0,0,0,0,0,0,-0.2839,-0.2827,-0.2815,-0.284,-0.2839,-0.283,-0.2845,-0.283,-0.2834,-0.283,-0.2811,-0.281,-0.2833,-0.283,-0.2812,-0.2855,-0.283,-0.2834,-0.2856,-0.2863,-0.2869,-0.2869,-0.278,0,0,0,0,0,-0.285,-0.286,-0.2849,-0.2872,-0.2873,-0.2859,-0.2863,-0.2851,-0.285,-0.285,-0.2844,-0.2844,-0.2852,-0.2857,-0.2864,-0.2894,-0.2892,-0.2909,-0.2915,-0.292,-0.2923,-0.2939,-0.2946,-0.2869,-0.2869,-0.2868,0,0,-0.2873,-0.2868,-0.2875,-0.288,-0.2878,-0.2889,-0.2859,-0.2872,-0.288,-0.2852,-0.287,-0.2866,-0.2865,-0.289,-0.29,-0.2888,-0.2945,-0.2924,-0.2928,-0.2929,-0.2943,-0.2951,-0.2957,-0.2871,-0.287,-0.287,0,0,-0.2921,-0.2918,-0.2937,-0.2936,-0.2934,-0.2924,-0.2929,-0.2922,-0.2918,-0.2937,-0.2916,-0.2926,-0.294,-0.294,-0.2942,-0.2991,-0.2975,-0.2994,-0.3025,-0.3041,-0.3047,-0.3052,-0.307,-0.3076,-0.2998,-0.2998,-0.2998,0,-0.295,-0.2966,-0.2949,-0.2963,-0.2966,-0.2941,-0.2961,-0.296,-0.2961,-0.2963,-0.2949,-0.2967,-0.2964,-0.2989,-0.3001,-0.3004,-0.3009,-0.2994,-0.3047,-0.3052,-0.3057,-0.3074,-0.308,-0.3,-0.3,-0.3,-0.2999,0,-0.3002,-0.3013,-0.3029,-0.303,-0.3034,-0.3051,-0.3037,-0.3044,-0.3032,-0.3025,-0.3044,-0.304,-0.3046,-0.3051,-0.304,-0.3075,-0.3067,-0.3051,-0.3025,-0.3067,-0.3082,-0.3089,-0.3003,-0.3003,-0.3002,-0.3001,0,0,-0.3073,-0.3064,-0.307,-0.307,-0.3066,-0.3075,-0.3091,-0.3097,-0.3103,-0.3104,-0.3118,-0.3131,-0.3116,-0.3118,-0.3107,-0.312,-0.316,-0.3102,-0.3102,-0.3113,-0.3199,-0.3211,-0.3219,-0.3149,-0.315,-0.3151,-0.3199,0,-0.3118,-0.3145,-0.3131,-0.3159,-0.317,-0.3147,-0.3161,-0.316,-0.3154,-0.3163,-0.3156,-0.3166,-0.3145,-0.3146,-0.3159,-0.3152,-0.3177,-0.3149,-0.3162,-0.3162,-0.3162,-0.3226,-0.3239,-0.3284,-0.3205,-0.3206,-0.3206,0,-0.3175,-0.3179,-0.3208,-0.3203,-0.3207,-0.322,-0.3224,-0.3232,-0.3232,-0.3226,-0.3229,-0.3215,-0.3231,-0.3206,-0.3229,-0.321,-0.3215,-0.3213,-0.3214,-0.3214,-0.3187,-0.3228,-0.3298,-0.3305,-0.3216,-0.3215,-0.3214,0,-0.3223,-0.3236,-0.3255,-0.3256,-0.325,-0.326,-0.3258,-0.3256,-0.3261,-0.3265,-0.3268,-0.3274,-0.3277,-0.3283,-0.327,-0.3253,-0.3295,-0.3269,-0.3291,-0.3291,-0.33,-0.33,-0.3371,-0.3304,-0.3304,-0.3304,-0.3303,0,-0.3276,-0.3295,-0.3277,-0.3289,-0.331,-0.3294,-0.3315,-0.3311,-0.331,-0.3321,-0.3302,-0.3313,-0.3296,-0.3306,-0.3297,-0.3317,-0.3319,-0.3315,-0.3312,-0.3316,-0.3317,-0.3319,-0.3315,-0.3305,-0.3305,-0.3305,-0.3304,0,-0.3333,-0.3322,-0.3341,-0.3334,-0.3333,-0.3349,-0.3343,-0.3354,-0.3347,-0.3362,-0.3364,-0.3353,-0.3364,-0.3353,-0.3362,-0.3356,-0.3383,-0.3376,-0.3383,-0.3381,-0.3404,-0.3402,-0.3479,-0.3489,-0.3415,-0.3416,-0.3417,0,-0.3367,-0.3381,-0.3376,-0.3382,-0.3381,-0.3391,-0.3395,-0.338,-0.3386,-0.3387,-0.3398,-0.3407,-0.3413,-0.3431,-0.3424,-0.3432,-0.3425,-0.3451,-0.3426,-0.343,-0.3425,-0.3424,-0.3426,-0.3456,-0.3457,-0.3458,-0.3459,0,-0.3428,-0.3422,-0.3429,-0.3435,-0.3441,-0.3444,-0.3447,-0.3453,-0.3437,-0.3445,-0.3455,-0.346,-0.347,-0.3479,-0.3485,-0.3484,-0.3469,-0.3467,-0.3472,-0.3477,-0.348,-0.3479,-0.3397,-0.3465,-0.3464,-0.3464,-0.3464,-0.3463,-0.3475,-0.3486,-0.3485,-0.3493,-0.3493,-0.3496,-0.3506,-0.3501,-0.3509,-0.3516,-0.3507,-0.352,-0.352,-0.3526,-0.3527,-0.3537,-0.3526,-0.3534,-0.3536,-0.3538,-0.3541,-0.3479,-0.3538,-0.3538,-0.3538,-0.3537,-0.3537,0,-0.3535,-0.3533,-0.3541,-0.3545,-0.3552,-0.3537,-0.3539,-0.3547,-0.3558,-0.3559,-0.3566,-0.3578,-0.3587,-0.3582,-0.359,-0.3599,-0.3593,-0.3602,-0.3601,-0.3601,-0.3551,-0.3545,-0.3607,-0.3607,-0.3607,-0.3607,-0.3607,-0.3607,-0.3567,-0.3586,-0.358,-0.3599,-0.3597,-0.361,-0.3612,-0.3615,-0.3616,-0.363,-0.3637,-0.3634,-0.3632,-0.364,-0.3648,-0.3646,-0.365,-0.3662,-0.3658,-0.3611,-0.3604,-0.3598,-0.3592,-0.3663,-0.3663,-0.3707,-0.3707,-0.3707]},{"header":{"parameterUnit":"m.s-1","parameterCategory":1,"la1":30.2991,"la2":30.254,"lo1":-89.0895,"lo2":-89.0444,"dy":0.0017,"dx":0.0017,"nx":28,"ny":28,"refTime":"2023-10-08T21:00:00:Z","depth":0,"parameterNumber":3,"parameterNumberName":"V-component_of_WINDS"},"data":[0,0,0,0,0,0,0,0,0,0,0,0,0,0,0,0,0,0,0,0,0,0,0,0,0,0,0,0,0,0,0,0,0,0,0,0,0,0,0,0,0,0,0,0,0,0,0,0,0,0,0,0,0,0,0,0,0,0,1.7908,1.7908,0,1.7879,1.7879,1.7878,1.7913,1.7914,1.7915,1.7916,1.7883,1.7881,1.7879,0,0,0,0,0,0,0,0,0,0,0,0,0,1.7989,1.7987,1.7908,1.7908,1.7907,1.7879,1.7879,1.7878,1.7912,1.7914,1.7916,1.7917,1.7883,1.7881,1.7878,0,0,0,0,0,0,0,0,0,0,0,0,0,1.7956,1.7986,1.7908,1.7921,1.7922,1.7879,1.7879,1.7878,1.7912,1.7914,1.7916,1.7918,1.7884,1.7881,1.7878,1.782,0,0,1.7868,1.7867,0,0,0,0,0,0,0,0,1.7958,1.7953,1.7919,1.792,1.7921,1.7902,1.7895,1.7859,1.7912,1.7916,1.7916,1.7919,1.7887,1.7884,1.7874,1.7819,1.7817,1.7868,1.7866,1.7865,1.7864,0,0,0,0,0,0,0,1.796,1.7954,1.7896,1.7919,1.792,1.7927,1.7924,1.7888,1.7891,1.7915,1.7918,1.7914,1.7888,1.7877,1.7874,1.7817,1.7868,1.7865,1.7864,1.7862,1.7712,1.771,0,0,0,0,0,0,1.7961,1.7956,1.7897,1.7896,1.7945,1.7924,1.7921,1.7906,1.7891,1.7891,1.7913,1.7916,1.7881,1.7877,1.7872,1.7803,1.7865,1.7862,1.786,1.7714,1.7711,1.7709,0,0,0,0,0,0,1.7963,1.7956,1.7898,1.7926,1.792,1.7921,1.7903,1.7904,1.7893,1.7889,1.7889,1.7901,1.7883,1.7877,1.7833,1.7802,1.7861,1.7858,1.7716,1.7713,1.771,1.7664,0,0,0,0,0,0,1.7965,1.7956,1.7935,1.7926,1.7918,1.786,1.7901,1.7902,1.7888,1.7892,1.7879,1.7878,1.7884,1.7838,1.783,1.7799,1.7855,1.7719,1.7715,1.7711,1.7668,1.766,1.7653,0,0,0,0,0,1.7968,1.7922,1.7934,1.7926,1.7892,1.7859,1.7854,1.7863,1.7886,1.7864,1.7861,1.7879,1.7808,1.7833,1.7825,1.7792,1.7721,1.7716,1.7711,1.7672,1.7662,1.7653,0,0,0,0,0,0,1.7926,1.7921,1.7934,1.7884,1.7872,1.7865,1.7837,1.7852,1.7831,1.7836,1.7846,1.7843,1.7796,1.779,1.7818,1.7735,1.7768,1.7761,1.7741,1.7731,1.7723,1.7725,1.7853,0,0,0,0,0,1.7912,1.7886,1.7883,1.7839,1.7833,1.7836,1.7822,1.783,1.7817,1.7811,1.7805,1.7791,1.7765,1.7748,1.7724,1.7668,1.7665,1.7642,1.7634,1.7628,1.7621,1.7591,1.758,1.7693,1.7693,1.7693,0,0,1.788,1.7875,1.7858,1.7831,1.7822,1.7794,1.7831,1.78,1.7779,1.7806,1.7764,1.776,1.7744,1.7694,1.7672,1.7687,1.759,1.7622,1.7616,1.7613,1.7585,1.7574,1.7564,1.769,1.7691,1.7691,0,0,1.7809,1.7803,1.7766,1.7757,1.7744,1.7746,1.7737,1.7728,1.7726,1.7685,1.7704,1.7679,1.7635,1.7623,1.7611,1.7536,1.7551,1.7528,1.7486,1.7456,1.7447,1.7439,1.7411,1.7401,1.7522,1.7522,1.7522,0,1.7771,1.7732,1.7744,1.7712,1.7699,1.7724,1.7686,1.7676,1.7655,1.7645,1.7664,1.7609,1.7601,1.7548,1.7529,1.7519,1.7509,1.7529,1.7448,1.744,1.7433,1.7406,1.7396,1.7519,1.752,1.752,1.752,0,1.7686,1.7658,1.7629,1.761,1.7594,1.7559,1.7565,1.7547,1.7557,1.7557,1.7515,1.7506,1.748,1.7469,1.7477,1.7416,1.7427,1.7447,1.7479,1.7419,1.7394,1.7384,1.7515,1.7516,1.7517,1.7518,0,0,1.7586,1.7575,1.7564,1.7556,1.7543,1.7521,1.7487,1.7464,1.7448,1.7433,1.7404,1.7366,1.7385,1.7371,1.7379,1.7353,1.7293,1.7376,1.7375,1.7359,1.7224,1.7209,1.7197,1.7303,1.7302,1.73,1.7225,0,1.7513,1.7456,1.7466,1.7409,1.7383,1.7407,1.7377,1.7365,1.7365,1.7342,1.7341,1.7314,1.7341,1.7333,1.7308,1.7305,1.7265,1.7311,1.7274,1.7273,1.7276,1.7184,1.7167,1.7097,1.7216,1.7214,1.7213,0,1.7421,1.7404,1.7345,1.7337,1.7327,1.73,1.7279,1.7257,1.7244,1.7246,1.7231,1.7244,1.7209,1.7243,1.7194,1.7225,1.7211,1.7207,1.7205,1.72,1.7238,1.7176,1.7075,1.7064,1.7198,1.7199,1.72,0,1.7353,1.7315,1.7275,1.7267,1.7257,1.7237,1.7232,1.7222,1.7207,1.7189,1.7179,1.7156,1.7144,1.7125,1.7131,1.7156,1.708,1.7115,1.7079,1.7079,1.7061,1.7061,1.6955,1.7054,1.7054,1.7054,1.7055,0,1.727,1.7233,1.7244,1.7219,1.7177,1.719,1.7148,1.7145,1.7136,1.711,1.7129,1.7104,1.7114,1.7089,1.7093,1.7051,1.7045,1.7045,1.7046,1.7042,1.7042,1.7032,1.7036,1.7052,1.7052,1.7053,1.7053,0,1.7186,1.7192,1.715,1.7144,1.7142,1.7112,1.7106,1.7082,1.7084,1.7051,1.7044,1.7046,1.7018,1.7022,1.699,1.6993,1.6941,1.6949,1.6945,1.6946,1.691,1.6912,1.6791,1.6776,1.6886,1.6885,1.6884,0,1.7132,1.7104,1.7096,1.7081,1.7074,1.7049,1.7035,1.7046,1.703,1.7014,1.6991,1.6965,1.6945,1.6899,1.6896,1.6872,1.6879,1.6838,1.6875,1.6872,1.6877,1.6878,1.6875,1.683,1.6829,1.6828,1.6827,0,1.7035,1.704,1.7019,1.6999,1.6982,1.6966,1.6953,1.6939,1.6949,1.6929,1.6902,1.6886,1.6855,1.6828,1.6806,1.6799,1.6814,1.6816,1.6806,1.6801,1.68,1.6799,1.6924,1.6818,1.6819,1.682,1.682,1.6821,1.6964,1.694,1.6931,1.6907,1.6898,1.6885,1.6862,1.6861,1.6839,1.6815,1.6823,1.6791,1.6779,1.6751,1.6742,1.6716,1.6731,1.6717,1.6713,1.6709,1.6704,1.6805,1.6712,1.6712,1.6713,1.6713,1.6713,0,1.6867,1.6863,1.6841,1.6822,1.6802,1.6821,1.6806,1.6789,1.6761,1.6749,1.6729,1.6697,1.6672,1.6668,1.6644,1.6624,1.663,1.6617,1.6617,1.6615,1.6693,1.6703,1.6612,1.6612,1.6612,1.6612,1.6612,1.6612,1.6814,1.6775,1.6778,1.6734,1.673,1.67,1.669,1.6678,1.6668,1.6632,1.6611,1.661,1.6601,1.6576,1.6553,1.6553,1.6542,1.6526,1.6528,1.66,1.661,1.662,1.6629,1.6524,1.6524,1.6453,1.6452,1.6452]}]]